Hourly Weather Roundup
Issued by NWS Central Illinois

Home | Current Version | Previous Version | Text Only | Print | Product List | Glossary On
Versions: 1 2 3 4 5 6 7 8 9 10 11 12 13 14 15 16 17 18 19 20 21 22 23 24 25 26 27 28 29 30 31 32 33 34 35 36 37 38 39 40 41 42 43 44 45 46 47 48 49 50
000
NZUS43 KILX 271710
HWRILX

AREA WEATHER ROUNDUP
NATIONAL WEATHER SERVICE, LINCOLN IL
1200 PM CDT SAT AUG 27 2016


CITY           SKY/WX    TMP DP  RH WIND       PRES   REMARKS
BLOOMINGTON    CLOUDY    81  73  76 S9        30.08F HX  86
CHAMPAIGN      MOSUNNY   83  74  74 S6        30.09F HX  89
DANVILLE       PTSUNNY   82  73  76 SE6       30.08R HX  87
DECATUR        MOSUNNY   84  73  69 SW6       30.07F HX  90
EFFINGHAM      MOSUNNY   84  75  74 SE5       30.10F HX  91
FLORA          CLOUDY    83  74  74 S6        30.10F HX  90
GALESBURG      MOSUNNY   81  72  74 SW9       30.04R HX  85
JACKSONVILLE   CLOUDY    81  74  78 S3        30.06S HX  86
LACON          MOSUNNY   79  71  78 SW9       30.04S HX  81
LAWRENCEVILLE  CLOUDY    79  73  82 VRB3      30.11F HX  82
LITCHFIELD     SUNNY     85  71  64 W3        30.08S HX  90
$$


CITY           SKY/WX    TMP DP  RH WIND       PRES   REMARKS
LINCOLN        MOSUNNY   84  75  74 S5        30.06F HX  91
MACOMB         MOSUNNY   81  73  77 SW7       30.06S HX  85
MATTOON        SUNNY     81  71  71 S8        30.08F HX  85
MT CARMEL AP   CLOUDY    80  73  79 S3        30.11S HX  83
OLNEY-NOBLE AP CLOUDY    81  72  74 S5        30.11S HX  84
PARIS          MOSUNNY   81  75  81 S3        30.10F HX  87
PEORIA         CLOUDY    74  74 100 SW10      30.05S
PONTIAC        MOSUNNY   83  76  80 S7        30.06F HX  91
RANTOUL        MOSUNNY   84  75  75 S7        30.08F HX  91
ROBINSON       CLOUDY    79  73  80 S6        30.11F HX  83
SPRINGFIELD    CLOUDY    84  73  69 S5        30.06F HX  90
TAYLORVILLE    SUNNY     83  74  73 S6        30.07F HX  90
$$

...REGIONAL REPORTS...


CITY           SKY/WX    TMP DP  RH WIND       PRES   REMARKS
CHICAGO O`HARE CLOUDY    75  71  87 S9        30.05S
KANKAKEE       PTSUNNY   81  74  78 SE9       30.08S HX  86
MOLINE         MOSUNNY   80  70  71 W9        30.01F HX  83
MOUNT STERLING CLOUDY    81  72  73 SW7       30.05S HX  86
MOUNT VERNON   MOSUNNY   84  70  61 S7        30.10F HX  88
PITTSFIELD     PTSUNNY   84  73  70 SW6       30.06F HX  90
QUINCY         MOSUNNY   83  75  77 S8        30.04F HX  90
ROCKFORD       CLOUDY    77  69  76 S9        30.04S
$$


CITY           SKY/WX    TMP DP  RH WIND       PRES   REMARKS
BURLINGTON     SUNNY     80  71  74 SW8       30.02F HX  84
CEDAR RAPIDS   CLOUDY    73  69  87 W8        30.01F
DES MOINES     PTSUNNY   71  66  84 SW3       30.02F
KIRKSVILLE     PTSUNNY   80  72  76 S7        30.05S HX  84
OTTUMWA        PTSUNNY   76  68  76 W5        30.02F
ST LOUIS       PTSUNNY   88  70  55 VRB3      30.07S HX  93
$$


CITY           SKY/WX    TMP DP  RH WIND       PRES   REMARKS
TERRE HAUTE    CLOUDY    80  72  76 VRB6      30.11F HX  84
EVANSVILLE     MOSUNNY   83  71  67 NE6       30.11F HX  87
INDIANAPOLIS   RAIN      74  72  93 S7        30.13F FOG
LAFAYETTE      CLOUDY    78  74  87 SE8       30.09S HX  81
MADISON        DRIZZLE   66  64  93 E7        30.04S
MILWAUKEE      CLOUDY    71  66  84 N3        30.05S
$$





USA.gov is the U.S. government's official web portal to all federal, state and local government web resources and services.